| time (UTC) | temp F | wind direction | speed knots | gust knots | rain 1hr in | rain 24hr in | rain mn in | humidity % | barometer mb |
| 20260510182719 | 65 | 223 | 3.5 | 10.4 | 0.00 | 0.01 | 0.00 | 1012.5 | |
| 20260510182218 | 65 | 243 | 5.2 | 13.0 | 0.00 | 0.02 | 0.00 | 1012.5 | |
| 20260510181614 | 65 | 261 | 5.2 | 13.9 | 0.00 | 0.02 | 0.00 | 1012.5 | |
| 20260510181042 | 65 | 264 | 5.2 | 13.9 | 0.00 | 0.02 | 0.00 | 1012.5 | |
| 20260510180541 | 64 | 239 | 2.6 | 13.0 | 0.00 | 0.03 | 0.00 | 1012.5 | |
| 20260510180040 | 64 | 229 | 4.3 | 10.4 | 0.00 | 0.04 | 0.00 | 1012.5 | |
| 20260510175539 | 64 | 275 | 2.6 | 13.0 | 0.00 | 0.05 | 0.00 | 1012.5 | |
| 20260510175036 | 64 | 256 | 6.1 | 13.0 | 0.00 | 0.05 | 0.00 | 1012.5 | |
| 20260510174534 | 64 | 261 | 5.2 | 13.0 | 0.00 | 0.06 | 0.00 | 1012.5 | |
| 20260510174033 | 64 | 224 | 5.2 | 11.3 | 0.00 | 0.06 | 0.00 | 1012.2 | |
| 20260510173533 | 64 | 254 | 3.5 | 8.7 | 0.00 | 0.07 | 0.00 | 1012.2 | |
| 20260510172928 | 63 | 262 | 4.3 | 10.4 | 0.00 | 0.08 | 0.00 | 1012.2 | |
| 20260510172427 | 63 | 259 | 1.7 | 13.0 | 0.00 | 0.08 | 0.00 | 1012.2 | |
| 20260510171924 | 63 | 322 | 0.9 | 13.0 | 0.00 | 0.08 | 0.00 | 1012.2 | |
| 20260510171421 | 62 | 277 | 7.0 | 13.0 | 0.00 | 0.09 | 0.00 | 1012.2 | |
| 20260510170919 | 62 | 290 | 7.0 | 11.3 | 0.00 | 0.09 | 0.00 | 1012.2 | |
| 20260510170313 | 62 | 276 | 4.3 | 11.3 | 0.00 | 0.10 | 0.00 | 1012.5 | |
| 20260510165812 | 61 | 250 | 4.3 | 15.6 | 0.00 | 0.10 | 0.00 | 1012.5 | |
| 20260510165239 | 61 | 261 | 6.1 | 15.6 | 0.00 | 0.10 | 0.00 | 1012.5 | |
| 20260510164706 | 61 | 271 | 7.0 | 13.9 | 0.00 | 0.10 | 0.00 | 1012.5 | |
| 20260510164134 | 61 | 251 | 7.0 | 13.9 | 0.00 | 0.10 | 0.00 | 1012.2 | |
| 20260510163601 | 60 | 299 | 2.6 | 8.7 | 0.00 | 0.11 | 0.00 | 1012.2 | |
| 20260510162958 | 60 | 264 | 3.5 | 8.7 | 0.00 | 0.11 | 0.00 | 1012.5 | |
| 20260510162457 | 59 | 239 | 3.5 | 7.8 | 0.00 | 0.11 | 0.00 | 1012.5 | |
| 20260510161956 | 59 | 269 | 3.5 | 11.3 | 0.00 | 0.12 | 0.00 | 1012.5 | |
| 20260510161423 | 59 | 278 | 4.3 | 13.0 | 0.00 | 0.12 | 0.00 | 1012.5 | |
| 20260510160922 | 58 | 256 | 0.0 | 13.0 | 0.00 | 0.12 | 0.00 | 1012.5 | |
| 20260510160422 | 58 | 278 | 6.1 | 13.0 | 0.00 | 0.12 | 0.00 | 1012.5 | |
| 20260510155920 | 58 | 31 | 2.6 | 11.3 | 0.00 | 0.12 | 0.00 | 1012.5 | |
| 20260510155418 | 58 | 327 | 1.7 | 11.3 | 0.00 | 0.13 | 0.00 | 1012.9 | |
| 20260510154916 | 58 | 293 | 3.5 | 11.3 | 0.00 | 0.14 | 0.00 | 1012.5 | |
| 20260510154344 | 58 | 266 | 3.5 | 11.3 | 0.00 | 0.14 | 0.00 | 1012.5 | |
| 20260510153843 | 58 | 293 | 4.3 | 13.0 | 0.00 | 0.14 | 0.00 | 1012.5 | |
| 20260510153342 | 58 | 259 | 2.6 | 16.5 | 0.00 | 0.14 | 0.00 | 1012.5 | |
| 20260510152841 | 58 | 284 | 5.2 | 16.5 | 0.00 | 0.15 | 0.00 | 1012.5 | |
| 20260510152340 | 58 | 275 | 7.0 | 16.5 | 0.00 | 0.15 | 0.00 | 1012.2 | |
| 20260510151838 | 58 | 258 | 3.5 | 7.8 | 0.00 | 0.16 | 0.00 | 1012.2 | |
| 20260510151336 | 57 | 207 | 3.5 | 8.7 | 0.00 | 0.16 | 0.00 | 1012.2 | |
| 20260510150835 | 57 | 230 | 2.6 | 8.7 | 0.00 | 0.16 | 0.00 | 1012.2 | |
| 20260510150334 | 57 | 262 | 3.5 | 8.7 | 0.00 | 0.17 | 0.00 | 1012.2 | |
| 20260510145832 | 57 | 280 | 1.7 | 8.7 | 0.00 | 0.18 | 0.00 | 1012.2 | |
| 20260510145331 | 57 | 261 | 4.3 | 10.4 | 0.00 | 0.19 | 0.00 | 1011.9 | |
| 20260510144830 | 57 | 271 | 3.5 | 10.4 | 0.00 | 0.20 | 0.00 | 1011.9 | |
| 20260510144329 | 58 | 257 | 5.2 | 10.4 | 0.00 | 0.20 | 0.00 | 1011.9 | |
| 20260510143828 | 58 | 281 | 1.7 | 8.7 | 0.00 | 0.21 | 0.00 | 1011.9 | |
| 20260510143326 | 58 | 267 | 3.5 | 8.7 | 0.00 | 0.22 | 0.00 | 1011.9 | |
| 20260510142825 | 58 | 292 | 3.5 | 8.7 | 0.00 | 0.23 | 0.00 | 1011.5 | |
| 20260510142323 | 58 | 298 | 0.9 | 6.1 | 0.00 | 0.24 | 0.00 | 1011.5 | |
| 20260510141822 | 58 | 223 | 1.7 | 3.5 | 0.00 | 0.24 | 0.00 | 1011.5 | |
| 20260510141319 | 57 | 223 | 0.0 | 3.5 | 0.00 | 0.25 | 0.00 | 1011.2 | |
| 20260510140814 | 57 | 223 | 0.9 | 3.5 | 0.00 | 0.26 | 0.00 | 1011.2 | |
| 20260510140312 | 57 | 223 | 0.0 | 2.6 | 0.00 | 0.26 | 0.00 | 1011.2 | |
| 20260510135809 | 57 | 223 | 0.0 | 3.5 | 0.00 | 0.27 | 0.00 | 1011.2 | |
| 20260510135308 | 57 | 223 | 0.0 | 3.5 | 0.00 | 0.27 | 0.00 | 1011.2 | |
| 20260510134804 | 57 | 219 | 0.0 | 5.2 | 0.00 | 0.28 | 0.00 | 1011.2 | |
| 20260510134230 | 57 | 219 | 0.9 | 5.2 | 0.00 | 0.28 | 0.00 | 1011.5 | |
| 20260510133730 | 58 | 253 | 2.6 | 5.2 | 0.00 | 0.28 | 0.00 | 1011.2 | |
| 20260510133228 | 57 | 294 | 0.9 | 6.1 | 0.00 | 0.28 | 0.00 | 1010.8 | |
| 20260510132727 | 57 | 296 | 1.7 | 6.1 | 0.00 | 0.29 | 0.00 | 1010.8 | |
| 20260510132226 | 57 | 290 | 2.6 | 6.1 | 0.00 | 0.29 | 0.00 | 1010.8 | |
| 20260510131723 | 57 | 284 | 0.9 | 6.1 | 0.00 | 0.30 | 0.00 | 1010.8 | |
| 20260510131222 | 57 | 287 | 2.6 | 6.1 | 0.00 | 0.30 | 0.00 | 1010.8 | |
| 20260510130720 | 57 | 259 | 2.6 | 5.2 | 0.00 | 0.30 | 0.00 | 1010.8 | |
| 20260510130219 | 56 | 209 | 0.9 | 2.6 | 0.00 | 0.31 | 0.00 | 1010.8 | |
| 20260510125717 | 55 | 209 | 0.0 | 2.6 | 0.00 | 0.31 | 0.00 | 1010.8 | |
| 20260510125215 | 55 | 209 | 0.0 | 3.5 | 0.00 | 0.32 | 0.00 | 1010.5 | |
| 20260510124713 | 55 | 209 | 0.0 | 3.5 | 0.00 | 0.32 | 0.00 | 1010.5 | |
| 20260510124210 | 54 | 238 | 0.0 | 3.5 | 0.00 | 0.32 | 0.00 | 1010.5 | |
| 20260510123709 | 54 | 238 | 0.9 | 3.5 | 0.00 | 0.33 | 0.00 | 1010.8 | |
| 20260510123207 | 54 | 237 | 0.9 | 3.5 | 0.00 | 0.33 | 0.00 | 1010.5 | |
| 20260510122705 | 54 | 229 | 1.7 | 3.5 | 0.00 | 0.33 | 0.00 | 1010.5 | |
| 20260510122203 | 54 | 265 | 1.7 | 3.5 | 0.00 | 0.33 | 0.00 | 1010.8 | |
| 20260510121702 | 53 | 228 | 2.6 | 3.5 | 0.00 | 0.33 | 0.00 | 1010.5 | |
| 20260510121129 | 53 | 215 | 0.0 | 3.5 | 0.00 | 0.34 | 0.00 | 1010.5 | |
| 20260510120627 | 53 | 215 | 0.0 | 2.6 | 0.00 | 0.34 | 0.00 | 1010.8 | |
| 20260510120126 | 53 | 215 | 0.0 | 2.6 | 0.00 | 0.34 | 0.00 | 1010.5 | |
| 20260510115522 | 53 | 215 | 0.9 | 5.2 | 0.00 | 0.34 | 0.00 | 1010.5 | |
| 20260510115021 | 52 | 214 | 0.0 | 5.2 | 0.00 | 0.34 | 0.00 | 1010.5 | |
| 20260510114519 | 52 | 238 | 0.0 | 2.6 | 0.00 | 0.34 | 0.00 | 1010.5 | |
| 20260510114019 | 52 | 238 | 0.0 | 2.6 | 0.00 | 0.34 | 0.00 | 1010.5 | |
| 20260510113517 | 52 | 238 | 0.0 | 2.6 | 0.00 | 0.34 | 0.00 | 1010.5 | |
| 20260510113016 | 52 | 257 | 0.9 | 3.5 | 0.00 | 0.34 | 0.00 | 1010.5 | |
| 20260510112513 | 52 | 246 | 0.9 | 6.1 | 0.00 | 0.34 | 0.00 | 1010.5 | |
| 20260510111941 | 52 | 156 | 1.7 | 6.1 | 0.00 | 0.34 | 0.00 | 1010.5 | |
| 20260510111440 | 52 | 209 | 0.9 | 6.1 | 0.00 | 0.34 | 0.00 | 1010.5 | |
| 20260510110939 | 52 | 191 | 0.0 | 6.1 | 0.00 | 0.34 | 0.00 | 1010.2 | |
| 20260510110406 | 52 | 191 | 0.9 | 6.1 | 0.00 | 0.34 | 0.00 | 1010.2 | |
| 20260510105905 | 52 | 202 | 1.7 | 5.2 | 0.00 | 0.34 | 0.00 | 1010.2 | |
| 20260510105403 | 51 | 202 | 0.9 | 3.5 | 0.00 | 0.34 | 0.00 | 1010.2 | |
| 20260510104830 | 51 | 202 | 0.0 | 1.7 | 0.00 | 0.34 | 0.00 | 1010.2 | |
| 20260510104328 | 51 | 202 | 0.0 | 0.0 | 0.00 | 0.34 | 0.00 | 1010.2 | |
| 20260510103824 | 51 | 202 | 0.0 | 3.5 | 0.00 | 0.34 | 0.00 | 1009.8 | |
| 20260510103323 | 51 | 202 | 0.0 | 3.5 | 0.00 | 0.34 | 0.00 | 1009.8 | |
| 20260510102751 | 51 | 202 | 0.0 | 3.5 | 0.00 | 0.34 | 0.00 | 1009.8 | |
| 20260510102249 | 51 | 202 | 0.0 | 2.6 | 0.00 | 0.34 | 0.00 | 1009.8 | |
| 20260510101746 | 51 | 202 | 0.0 | 2.6 | 0.00 | 0.34 | 0.00 | 1009.5 | |
| 20260510101246 | 51 | 196 | 0.0 | 0.0 | 0.00 | 0.34 | 0.00 | 1009.5 | |
| 20260510100745 | 51 | 197 | 0.0 | 0.0 | 0.00 | 0.34 | 0.00 | 1009.5 | |
| 20260510100244 | 51 | 197 | 0.0 | 0.0 | 0.00 | 0.34 | 0.00 | 1009.5 | |
| 20260510095743 | 51 | 197 | 0.0 | 2.6 | 0.00 | 0.34 | 0.00 | 1009.5 | |
| 20260510095211 | 51 | 197 | 0.0 | 2.6 | 0.00 | 0.34 | 0.00 | 1009.1 | |
| 20260510094708 | 51 | 197 | 0.9 | 2.6 | 0.00 | 0.34 | 0.00 | 1009.1 | |
| 20260510094204 | 50 | 197 | 0.0 | 6.1 | 0.00 | 0.34 | 0.00 | 1009.1 | |
| 20260510093701 | 50 | 197 | 0.9 | 6.1 | 0.00 | 0.34 | 0.00 | 1008.8 | |
| 20260510093125 | 50 | 211 | 0.0 | 0.0 | 0.00 | 0.34 | 0.00 | 1008.8 | |
| 20260510092519 | 50 | 211 | 0.0 | 0.0 | 0.00 | 0.34 | 0.00 | 1008.8 | |
| 20260510092018 | 50 | 211 | 0.0 | 0.0 | 0.00 | 0.34 | 0.00 | 1008.8 | |
| 20260510091516 | 50 | 211 | 0.0 | 0.0 | 0.00 | 0.34 | 0.00 | 1008.8 | |
| 20260510090943 | 50 | 211 | 0.0 | 0.0 | 0.00 | 0.34 | 0.00 | 1008.8 | |
| 20260510090442 | 50 | 211 | 0.0 | 0.0 | 0.00 | 0.34 | 0.00 | 1008.8 | |
| 20260510085941 | 50 | 211 | 0.0 | 0.0 | 0.00 | 0.34 | 0.00 | 1008.8 | |
| 20260510085440 | 50 | 211 | 0.0 | 0.0 | 0.00 | 0.34 | 0.00 | 1008.5 | |
| 20260510084939 | 50 | 211 | 0.0 | 0.0 | 0.00 | 0.34 | 0.00 | 1008.5 | |
| 20260510084407 | 50 | 211 | 0.0 | 0.0 | 0.00 | 0.34 | 0.00 | 1008.8 | |
| 20260510083904 | 51 | 211 | 0.0 | 1.7 | 0.00 | 0.34 | 0.00 | 1008.8 | |
| 20260510083402 | 51 | 211 | 0.0 | 1.7 | 0.00 | 0.34 | 0.00 | 1008.8 | |
| 20260510082901 | 51 | 179 | 0.0 | 1.7 | 0.00 | 0.34 | 0.00 | 1008.8 | |
| 20260510082400 | 51 | 178 | 0.0 | 2.6 | 0.00 | 0.34 | 0.00 | 1008.8 | |
| 20260510081858 | 51 | 178 | 0.0 | 5.2 | 0.00 | 0.34 | 0.00 | 1008.8 | |
| 20260510081326 | 51 | 178 | 0.0 | 5.2 | 0.00 | 0.34 | 0.00 | 1008.8 | |
| 20260510080823 | 51 | 178 | 1.7 | 5.2 | 0.00 | 0.34 | 0.00 | 1008.8 | |
| 20260510080320 | 52 | 178 | 1.7 | 5.2 | 0.00 | 0.34 | 0.00 | 1008.8 | |
| 20260510075819 | 52 | 178 | 1.7 | 5.2 | 0.00 | 0.34 | 0.00 | 1008.8 | |
| 20260510075318 | 52 | 217 | 1.7 | 7.8 | 0.00 | 0.34 | 0.00 | 1008.5 | |
| 20260510074744 | 52 | 217 | 0.9 | 7.8 | 0.00 | 0.34 | 0.00 | 1008.5 | |
| 20260510074243 | 52 | 156 | 3.5 | 7.8 | 0.00 | 0.34 | 0.00 | 1008.1 | |
| 20260510073738 | 52 | 158 | 2.6 | 5.2 | 0.00 | 0.34 | 0.00 | 1008.5 | |
| 20260510073237 | 52 | 157 | 1.7 | 5.2 | 0.00 | 0.34 | 0.00 | 1008.5 | |
| 20260510072735 | 52 | 155 | 2.6 | 6.1 | 0.00 | 0.34 | 0.00 | 1008.5 | |
| 20260510072234 | 52 | 169 | 0.0 | 6.1 | 0.00 | 0.34 | 0.00 | 1008.5 | |
| 20260510071732 | 52 | 217 | 0.9 | 5.2 | 0.00 | 0.34 | 0.00 | 1008.8 | |
| 20260510071230 | 52 | 217 | 2.6 | 3.5 | 0.00 | 0.34 | 0.00 | 1009.1 | |
| 20260510070728 | 52 | 217 | 1.7 | 3.5 | 0.00 | 0.34 | 0.00 | 1009.5 | |
| 20260510070226 | 52 | 217 | 0.0 | 2.6 | 0.00 | 0.34 | 0.00 | 1009.1 | |
| 20260510065725 | 52 | 217 | 0.9 | 2.6 | 0.00 | 0.34 | 0.00 | 1009.5 | |
| 20260510065224 | 52 | 217 | 0.9 | 2.6 | 0.00 | 0.34 | 0.00 | 1009.5 | |
| 20260510064650 | 52 | 217 | 0.0 | 2.6 | 0.00 | 0.34 | 0.00 | 1009.5 | |
| 20260510064149 | 52 | 219 | 0.0 | 2.6 | 0.00 | 0.34 | 0.00 | 1009.5 | |
| 20260510063647 | 52 | 260 | 0.9 | 2.6 | 0.00 | 0.34 | 0.00 | 1009.5 | |
| 20260510063145 | 52 | 263 | 0.0 | 3.5 | 0.00 | 0.34 | 0.00 | 1009.5 | |
| 20260510062644 | 52 | 263 | 0.0 | 3.5 | 0.00 | 0.34 | 0.00 | 1009.5 | |
| 20260510062143 | 52 | 263 | 0.0 | 3.5 | 0.00 | 0.34 | 0.00 | 1009.5 | |
| 20260510061640 | 52 | 265 | 0.9 | 3.5 | 0.00 | 0.34 | 0.00 | 1009.5 | |
| 20260510061137 | 52 | 216 | 1.7 | 3.5 | 0.00 | 0.34 | 0.00 | 1009.1 | |
| 20260510060634 | 52 | 216 | 0.0 | 5.2 | 0.00 | 0.34 | 0.00 | 1009.1 | |
| 20260510060133 | 52 | 191 | 1.7 | 5.2 | 0.00 | 0.34 | 0.00 | 1009.1 | |
| 20260510055601 | 52 | 213 | 1.7 | 5.2 | 0.00 | 0.34 | 0.00 | 1009.1 | |
| 20260510055059 | 52 | 197 | 1.7 | 5.2 | 0.00 | 0.34 | 0.00 | 1009.1 | |
| 20260510054557 | 52 | 273 | 0.9 | 3.5 | 0.00 | 0.34 | 0.00 | 1009.1 | |
| 20260510054054 | 52 | 274 | 0.9 | 5.2 | 0.00 | 0.34 | 0.00 | 1009.1 | |
| 20260510053552 | 52 | 245 | 1.7 | 5.2 | 0.00 | 0.34 | 0.00 | 1009.1 | |
| 20260510053050 | 53 | 193 | 0.9 | 3.5 | 0.00 | 0.34 | 0.00 | 1009.1 | |
| 20260510052549 | 53 | 193 | 1.7 | 3.5 | 0.00 | 0.34 | 0.00 | 1009.1 | |
| 20260510052046 | 52 | 193 | 0.9 | 6.1 | 0.00 | 0.34 | 0.00 | 1008.8 | |
| 20260510051545 | 52 | 176 | 2.6 | 6.1 | 0.00 | 0.34 | 0.00 | 1008.8 | |
| 20260510051012 | 52 | 163 | 0.0 | 6.1 | 0.00 | 0.34 | 0.00 | 1008.8 | |
| 20260510050408 | 52 | 163 | 0.9 | 6.1 | 0.00 | 0.34 | 0.00 | 1008.8 | |
| 20260510045907 | 52 | 173 | 2.6 | 6.1 | 0.00 | 0.34 | 0.00 | 1008.8 | |
| 20260510045405 | 52 | 174 | 1.7 | 5.2 | 0.00 | 0.34 | 0.00 | 1008.8 | |
| 20260510044904 | 52 | 202 | 0.9 | 5.2 | 0.00 | 0.34 | 0.00 | 1008.8 | |
| 20260510044403 | 52 | 188 | 1.7 | 5.2 | 0.00 | 0.34 | 0.00 | 1008.8 | |
| 20260510043901 | 52 | 193 | 1.7 | 6.1 | 0.00 | 0.34 | 0.00 | 1008.8 | |
| 20260510043327 | 52 | 186 | 0.0 | 6.1 | 0.00 | 0.34 | 0.00 | 1008.8 | |
| 20260510042826 | 52 | 190 | 2.6 | 6.1 | 0.00 | 0.34 | 0.00 | 1008.8 | |
| 20260510042324 | 52 | 179 | 0.0 | 3.5 | 0.00 | 0.34 | 0.00 | 1008.8 | |
| 20260510041823 | 52 | 179 | 1.7 | 3.5 | 0.00 | 0.34 | 0.00 | 1008.8 | |
| 20260510041322 | 52 | 179 | 0.9 | 6.1 | 0.00 | 0.34 | 0.00 | 1008.8 | |
| 20260510040820 | 52 | 179 | 1.7 | 6.1 | 0.00 | 0.34 | 0.00 | 1008.8 | |
| 20260510040319 | 53 | 142 | 1.7 | 3.5 | 0.00 | 0.34 | 0.00 | 1008.8 | |
| 20260510035745 | 53 | 142 | 0.9 | 7.8 | 0.00 | 0.34 | 0.34 | 1008.8 | |
| 20260510035244 | 53 | 142 | 0.9 | 7.8 | 0.00 | 0.34 | 0.34 | 1008.8 | |
| 20260510034743 | 52 | 173 | 2.6 | 7.8 | 0.00 | 0.34 | 0.34 | 1008.8 | |
| 20260510034242 | 52 | 186 | 0.0 | 6.1 | 0.00 | 0.34 | 0.34 | 1008.8 | |
| 20260510033741 | 53 | 184 | 2.6 | 6.1 | 0.00 | 0.34 | 0.34 | 1008.8 | |
| 20260510033240 | 53 | 177 | 0.0 | 6.1 | 0.00 | 0.34 | 0.34 | 1008.8 | |
| 20260510032707 | 52 | 175 | 1.7 | 6.1 | 0.00 | 0.34 | 0.34 | 1008.8 | |
| 20260510032205 | 52 | 176 | 0.0 | 6.1 | 0.00 | 0.34 | 0.34 | 1008.5 | |
| 20260510031704 | 52 | 177 | 1.7 | 6.1 | 0.00 | 0.34 | 0.34 | 1008.8 | |
| 20260510031203 | 52 | 177 | 1.7 | 6.1 | 0.00 | 0.34 | 0.34 | 1008.8 | |
| 20260510030702 | 52 | 177 | 1.7 | 6.1 | 0.00 | 0.34 | 0.34 | 1008.8 | |
| 20260510030201 | 52 | 177 | 2.6 | 5.2 | 0.00 | 0.34 | 0.34 | 1008.8 | |
| 20260510025659 | 52 | 177 | 0.0 | 6.1 | 0.00 | 0.34 | 0.34 | 1009.1 | |
| 20260510025126 | 52 | 171 | 2.6 | 6.1 | 0.00 | 0.34 | 0.34 | 1008.8 | |
| 20260510024625 | 52 | 197 | 0.0 | 3.5 | 0.00 | 0.34 | 0.34 | 1009.1 | |
| 20260510024123 | 52 | 185 | 0.0 | 2.6 | 0.00 | 0.34 | 0.34 | 1009.1 | |
| 20260510023623 | 52 | 186 | 0.0 | 2.6 | 0.00 | 0.34 | 0.34 | 1009.1 | |
| 20260510023121 | 52 | 186 | 0.0 | 3.5 | 0.00 | 0.34 | 0.34 | 1009.1 | |
| 20260510022617 | 53 | 186 | 0.0 | 3.5 | 0.00 | 0.34 | 0.34 | 1009.1 | |
| 20260510022114 | 53 | 186 | 0.0 | 3.5 | 0.00 | 0.34 | 0.34 | 1008.8 | |
| 20260510021612 | 53 | 186 | 0.0 | 2.6 | 0.00 | 0.34 | 0.34 | 1008.8 | |
| 20260510021109 | 53 | 186 | 0.0 | 3.5 | 0.00 | 0.34 | 0.34 | 1008.8 | |
| 20260510020607 | 53 | 186 | 0.9 | 3.5 | 0.00 | 0.34 | 0.34 | 1008.8 | |
| 20260510020034 | 53 | 186 | 0.9 | 2.6 | 0.00 | 0.34 | 0.34 | 1008.8 | |
| 20260510015533 | 53 | 186 | 0.0 | 2.6 | 0.00 | 0.34 | 0.34 | 1009.1 | |
| 20260510015032 | 53 | 186 | 0.0 | 3.5 | 0.00 | 0.34 | 0.34 | 1009.1 | |
| 20260510014531 | 53 | 186 | 1.7 | 5.2 | 0.00 | 0.34 | 0.34 | 1009.1 | |
| 20260510013959 | 53 | 186 | 0.0 | 6.1 | 0.00 | 0.34 | 0.34 | 1008.8 | |
| 20260510013458 | 53 | 186 | 1.7 | 6.1 | 0.00 | 0.34 | 0.34 | 1008.8 | |
| 20260510012956 | 53 | 186 | 0.9 | 6.1 | 0.00 | 0.34 | 0.34 | 1008.8 | |
| 20260510012454 | 53 | 190 | 1.7 | 5.2 | 0.00 | 0.34 | 0.34 | 1009.1 | |
| 20260510011953 | 53 | 215 | 0.0 | 2.6 | 0.00 | 0.34 | 0.34 | 1009.1 | |
| 20260510011451 | 53 | 215 | 0.0 | 1.7 | 0.00 | 0.34 | 0.34 | 1009.1 | |
| 20260510010950 | 53 | 215 | 0.0 | 2.6 | 0.00 | 0.34 | 0.34 | 1009.1 | |
| 20260510010448 | 53 | 215 | 0.0 | 2.6 | 0.00 | 0.34 | 0.34 | 1009.1 | |
| 20260510005742 | 53 | 215 | 0.0 | 2.6 | 0.00 | 0.34 | 0.34 | 1009.1 | |
| 20260510005239 | 53 | 215 | 0.0 | 0.0 | 0.00 | 0.34 | 0.34 | 1009.1 | |
| 20260510004738 | 53 | 215 | 0.0 | 0.0 | 0.00 | 0.34 | 0.34 | 1009.1 | |
| 20260510004205 | 53 | 215 | 0.0 | 0.0 | 0.00 | 0.34 | 0.34 | 1009.1 | |
| 20260510003704 | 53 | 215 | 0.0 | 0.0 | 0.00 | 0.34 | 0.34 | 1008.8 | |
| 20260510003203 | 53 | 215 | 0.0 | 1.7 | 0.00 | 0.34 | 0.34 | 1008.8 | |
| 20260510002702 | 53 | 205 | 0.0 | 1.7 | 0.00 | 0.34 | 0.34 | 1008.8 | |
| 20260510002201 | 53 | 209 | 0.0 | 0.0 | 0.00 | 0.34 | 0.34 | 1008.8 | |
| 20260510001658 | 53 | 209 | 0.0 | 0.0 | 0.00 | 0.34 | 0.34 | 1008.5 | |
| 20260510001157 | 53 | 209 | 0.0 | 0.0 | 0.00 | 0.34 | 0.34 | 1008.5 | |
| 20260510000656 | 53 | 209 | 0.0 | 0.0 | 0.00 | 0.34 | 0.34 | 1008.5 | |
| 20260510000154 | 53 | 209 | 0.0 | 0.0 | 0.00 | 0.34 | 0.34 | 1008.1 | |
| 20260509235652 | 54 | 209 | 0.0 | 3.5 | 0.00 | 0.34 | 0.34 | 1008.1 | |
| 20260509235151 | 54 | 209 | 0.0 | 3.5 | 0.00 | 0.34 | 0.34 | 1008.1 | |
| 20260509234650 | 54 | 209 | 0.9 | 5.2 | 0.00 | 0.34 | 0.34 | 1008.1 | |
| 20260509234148 | 54 | 209 | 0.0 | 5.2 | 0.00 | 0.34 | 0.34 | 1008.1 | |
| 20260509233646 | 54 | 90 | 0.0 | 0.0 | 0.00 | 0.34 | 0.34 | 1008.1 | |
| 20260509233145 | 54 | 90 | 0.0 | 0.0 | 0.00 | 0.34 | 0.34 | 1008.1 | |
| 20260509232644 | 54 | 90 | 0.0 | 0.0 | 0.00 | 0.34 | 0.34 | 1008.1 | |
| 20260509232142 | 54 | 90 | 0.0 | 1.7 | 0.00 | 0.34 | 0.34 | 1008.1 | |
| 20260509231610 | 54 | 90 | 0.0 | 1.7 | 0.00 | 0.34 | 0.34 | 1007.8 | |
| 20260509231109 | 53 | 90 | 0.0 | 0.0 | 0.00 | 0.34 | 0.34 | 1007.8 | |
| 20260509230607 | 53 | 90 | 0.0 | 2.6 | 0.00 | 0.34 | 0.34 | 1008.1 | |
| 20260509230106 | 53 | 90 | 0.0 | 2.6 | 0.00 | 0.34 | 0.34 | 1008.1 | |
| 20260509225605 | 53 | 90 | 0.0 | 0.0 | 0.00 | 0.34 | 0.34 | 1008.1 | |
| 20260509225031 | 53 | 90 | 0.0 | 0.0 | 0.00 | 0.34 | 0.34 | 1008.1 | |
| 20260509224530 | 53 | 90 | 0.0 | 0.0 | 0.00 | 0.34 | 0.34 | 1008.1 | |
| 20260509224029 | 53 | 90 | 0.0 | 2.6 | 0.00 | 0.34 | 0.34 | 1008.1 | |
| 20260509223527 | 53 | 90 | 0.0 | 2.6 | 0.00 | 0.34 | 0.34 | 1008.1 | |
| 20260509222955 | 53 | 90 | 0.0 | 2.6 | 0.00 | 0.34 | 0.34 | 1008.1 | |
| 20260509222452 | 53 | 90 | 0.0 | 3.5 | 0.00 | 0.34 | 0.34 | 1008.1 | |
| 20260509221950 | 53 | 90 | 0.0 | 3.5 | 0.00 | 0.34 | 0.34 | 1008.1 | |
| 20260509221449 | 53 | 90 | 0.0 | 3.5 | 0.00 | 0.34 | 0.34 | 1008.1 | |
| 20260509220916 | 52 | 90 | 0.9 | 5.2 | 0.00 | 0.34 | 0.34 | 1008.1 | |
| 20260509220344 | 52 | 90 | 0.9 | 5.2 | 0.00 | 0.34 | 0.34 | 1008.1 | |
| 20260509215842 | 52 | 43 | 1.7 | 5.2 | 0.00 | 0.34 | 0.34 | 1008.1 | |
| 20260509215342 | 52 | 33 | 0.0 | 0.0 | 0.00 | 0.34 | 0.34 | 1008.1 | |
| 20260509214809 | 52 | 115 | 0.0 | 0.0 | 0.00 | 0.34 | 0.34 | 1008.1 | |
| 20260509214308 | 52 | 115 | 0.0 | 0.0 | 0.00 | 0.34 | 0.34 | 1008.1 | |
| 20260509213736 | 52 | 115 | 0.0 | 0.0 | 0.00 | 0.34 | 0.34 | 1008.5 | |
| 20260509213235 | 52 | 115 | 0.0 | 0.0 | 0.00 | 0.34 | 0.34 | 1008.5 | |
| 20260509212734 | 52 | 115 | 0.0 | 0.0 | 0.00 | 0.34 | 0.34 | 1008.5 | |
| 20260509212232 | 52 | 115 | 0.0 | 2.6 | 0.00 | 0.34 | 0.34 | 1008.5 | |
| 20260509211730 | 52 | 115 | 0.0 | 3.5 | 0.00 | 0.34 | 0.34 | 1008.5 | |
| 20260509211229 | 52 | 115 | 0.0 | 3.5 | 0.00 | 0.34 | 0.34 | 1008.5 | |
| 20260509210727 | 52 | 115 | 0.9 | 3.5 | 0.00 | 0.34 | 0.34 | 1008.5 | |
| 20260509210226 | 52 | 115 | 0.0 | 0.0 | 0.00 | 0.34 | 0.34 | 1008.5 | |
| 20260509205724 | 51 | 115 | 0.0 | 0.0 | 0.00 | 0.34 | 0.34 | 1008.8 | |
| 20260509205222 | 51 | 115 | 0.0 | 0.0 | 0.00 | 0.34 | 0.34 | 1008.8 | |
| 20260509204721 | 51 | 114 | 0.0 | 1.7 | 0.00 | 0.34 | 0.34 | 1008.8 | |
| 20260509204221 | 51 | 115 | 0.0 | 1.7 | 0.00 | 0.34 | 0.34 | 1008.8 | |
| 20260509203718 | 51 | 115 | 0.0 | 1.7 | 0.01 | 0.34 | 0.34 | 1008.8 | |
| 20260509203145 | 51 | 115 | 0.0 | 5.2 | 0.01 | 0.34 | 0.34 | 1008.8 | |
| 20260509202644 | 51 | 111 | 0.0 | 5.2 | 0.01 | 0.34 | 0.34 | 1009.1 | |
| 20260509202141 | 51 | 358 | 0.0 | 2.6 | 0.01 | 0.34 | 0.34 | 1009.1 | |
| 20260509201640 | 51 | 358 | 0.0 | 3.5 | 0.01 | 0.34 | 0.34 | 1009.1 | |
| 20260509201139 | 51 | 358 | 0.9 | 3.5 | 0.01 | 0.34 | 0.34 | 1009.1 | |
| 20260509200607 | 51 | 358 | 0.0 | 0.0 | 0.01 | 0.34 | 0.34 | 1009.1 | |
| 20260509200105 | 51 | 358 | 0.0 | 2.6 | 0.01 | 0.34 | 0.34 | 1009.1 | |
| 20260509195604 | 51 | 358 | 0.0 | 2.6 | 0.01 | 0.34 | 0.34 | 1009.5 | |
| 20260509195104 | 51 | 358 | 0.9 | 2.6 | 0.01 | 0.34 | 0.34 | 1009.5 | |
| 20260509194531 | 51 | 358 | 0.0 | 2.6 | 0.01 | 0.34 | 0.34 | 1009.5 | |
| 20260509194030 | 51 | 358 | 0.0 | 3.5 | 0.01 | 0.34 | 0.34 | 1009.5 | |
| 20260509193427 | 51 | 358 | 1.7 | 3.5 | 0.00 | 0.33 | 0.33 | 1009.5 | |
| 20260509192854 | 50 | 358 | 0.0 | 3.5 | 0.00 | 0.33 | 0.33 | 1009.5 | |
| 20260509192353 | 50 | 358 | 0.0 | 3.5 | 0.00 | 0.33 | 0.33 | 1009.5 | |
| 20260509191852 | 50 | 358 | 0.9 | 3.5 | 0.01 | 0.33 | 0.33 | 1009.5 | |
| 20260509191351 | 50 | 358 | 0.9 | 3.5 | 0.01 | 0.33 | 0.33 | 1009.5 | |
| 20260509190818 | 50 | 358 | 0.0 | 2.6 | 0.02 | 0.33 | 0.33 | 1009.5 | |
| 20260509190317 | 50 | 358 | 0.0 | 2.6 | 0.03 | 0.33 | 0.33 | 1009.8 | |
| 20260509185814 | 50 | 358 | 0.9 | 3.5 | 0.03 | 0.33 | 0.33 | 1009.8 | |
| 20260509185311 | 50 | 358 | 0.0 | 3.5 | 0.04 | 0.33 | 0.33 | 1009.8 | |
| 20260509184810 | 50 | 358 | 1.7 | 3.5 | 0.05 | 0.33 | 0.33 | 1009.8 | |
| 20260509184308 | 50 | 358 | 0.0 | 3.5 | 0.05 | 0.33 | 0.33 | 1009.8 | |
| 20260509183805 | 50 | 358 | 0.0 | 3.5 | 0.06 | 0.33 | 0.33 | 1009.8 | |
| 20260509183304 | 50 | 358 | 0.9 | 3.5 | 0.06 | 0.33 | 0.33 | 1009.8 |